Location: Bégole
(43.1574°N, 0.3291°E)
Time: 06:17:09
(UTC+00:00)

Lacrosse 5 - Pass Details

Date: 28 January 2023
Orbit: 714 x 724 km, 57.0° (Epoch: 09 March)

Event Time Altitude Azimuth Distance (km) Brightness Sun altitude
Rises 18:35:27 0° 189° (S) 3,118 5.4 -16.5°
Reaches altitude 10° 18:38:11 10° 176° (S) 2,203 4.4 -17.0°
Maximum altitude 18:42:13 24° 123° (ESE) 1,468 3.0 -17.8°
Enters shadow 18:42:20 24° 121° (ESE) 1,469 3.0 -17.8°
